[[{"header":{"parameterUnit":"m.s-1","parameterCategory":2,"la1":30.2991,"la2":30.254,"lo1":-89.0895,"lo2":-89.0444,"dy":0.0017,"dx":0.0017,"nx":28,"ny":28,"refTime":"2023-11-05T03:00:00:Z","depth":"0","parameterNumber":2,"parameterNumberName":"U-component_of_CURRENTS"},"data":[0,0,0,0,0,0,0,0,0,0,0,0,0,0,0,0,0,0,0,0,0,0,0,0,0,0,0,0,0,0,0,0,0,0,0,0,0,0,0,0,0,0,0,0,0,0,0,0,0,0,0,0,0,0,0,0,0,0,0.1953,0.1953,0,0.1959,0.1959,0.1959,0.1993,0.1993,0.1994,0.1995,0.2066,0.2067,0.2068,0,0,0,0,0,0,0,0,0,0,0,0,0,0.2012,0.2011,0.1953,0.1953,0.1953,0.1959,0.1959,0.1959,0.1993,0.1993,0.1994,0.1995,0.2065,0.2067,0.2068,0,0,0,0,0,0,0,0,0,0,0,0,0,0.2,0.201,0.1953,0.197,0.1971,0.1959,0.1959,0.1959,0.1992,0.1993,0.1995,0.1996,0.2065,0.2066,0.2068,0.2057,0,0,0.2074,0.2074,0,0,0,0,0,0,0,0,0.2,0.1998,0.1967,0.1969,0.197,0.1976,0.2006,0.1995,0.1992,0.1985,0.1995,0.1996,0.204,0.2044,0.2043,0.2061,0.2064,0.2074,0.2075,0.2076,0.2076,0,0,0,0,0,0,0,0.2001,0.1998,0.1956,0.1967,0.1969,0.1991,0.1991,0.2004,0.2008,0.1986,0.1988,0.1987,0.2042,0.2041,0.2045,0.2065,0.2074,0.2075,0.2077,0.2077,0.2122,0.2122,0,0,0,0,0,0,0.1995,0.1998,0.1956,0.1956,0.1988,0.1989,0.1988,0.1973,0.2007,0.2012,0.1986,0.1989,0.2037,0.2043,0.2048,0.2074,0.2076,0.2077,0.2078,0.2122,0.2122,0.2122,0,0,0,0,0,0,0.1996,0.1991,0.1956,0.1978,0.1975,0.1987,0.197,0.1973,0.1979,0.2006,0.2013,0.199,0.2038,0.2045,0.2071,0.2076,0.2078,0.208,0.2121,0.2122,0.2122,0.2103,0,0,0,0,0,0,0.1997,0.1991,0.198,0.1977,0.1973,0.1946,0.1969,0.1972,0.1976,0.1979,0.2011,0.2019,0.204,0.2068,0.2072,0.2078,0.2081,0.2121,0.2122,0.2122,0.2104,0.2103,0.2102,0,0,0,0,0,0.1999,0.1971,0.1979,0.1975,0.1957,0.1946,0.1946,0.196,0.1975,0.1971,0.2002,0.2018,0.2073,0.2069,0.2075,0.2081,0.2121,0.2122,0.2122,0.2104,0.2103,0.2102,0,0,0,0,0,0,0.1982,0.1972,0.1981,0.1949,0.1951,0.1951,0.1941,0.1957,0.1976,0.1984,0.2018,0.2027,0.2053,0.2066,0.2062,0.2095,0.21,0.2101,0.2084,0.2084,0.2083,0.2069,0.2083,0,0,0,0,0,0.1975,0.1955,0.1955,0.1929,0.1927,0.1937,0.1935,0.1947,0.1961,0.197,0.1992,0.2022,0.2055,0.2069,0.2092,0.2104,0.2134,0.2112,0.2111,0.2111,0.2104,0.2165,0.2169,0.2123,0.2123,0.2123,0,0,0.1958,0.1951,0.1938,0.1925,0.1924,0.191,0.1938,0.193,0.1929,0.1975,0.1979,0.2019,0.2058,0.208,0.2092,0.2093,0.2139,0.2111,0.211,0.2103,0.2166,0.2171,0.2175,0.2123,0.2123,0.2123,0,0,0.1904,0.1909,0.1873,0.1875,0.1875,0.1888,0.1887,0.1892,0.1907,0.1917,0.1962,0.2004,0.2029,0.2069,0.2092,0.2096,0.2135,0.2105,0.2088,0.2148,0.2153,0.2157,0.2199,0.2207,0.2102,0.2102,0.2102,0,0.1884,0.1844,0.1861,0.1834,0.1836,0.1876,0.1851,0.1867,0.1885,0.1908,0.1913,0.1993,0.2023,0.2079,0.2081,0.2095,0.2131,0.209,0.2148,0.2153,0.2157,0.2199,0.2209,0.2101,0.2101,0.2101,0.2101,0,0.1809,0.1787,0.1765,0.1752,0.1759,0.1744,0.1775,0.1795,0.1825,0.1852,0.1908,0.1958,0.2009,0.2029,0.2054,0.211,0.2126,0.2143,0.2151,0.2161,0.2204,0.2214,0.21,0.21,0.21,0.2101,0,0,0.1733,0.1716,0.1708,0.1702,0.1721,0.1717,0.1734,0.1767,0.1791,0.1829,0.1862,0.1929,0.1975,0.2004,0.2056,0.2104,0.2168,0.2132,0.2136,0.2173,0.2296,0.2277,0.2287,0.2204,0.2206,0.2207,0.2311,0,0.1669,0.1609,0.1626,0.1594,0.1573,0.1637,0.1651,0.1699,0.1749,0.1792,0.1875,0.1924,0.1962,0.1998,0.2053,0.2147,0.2194,0.2137,0.228,0.2283,0.2266,0.2298,0.2228,0.2313,0.2322,0.2323,0.2324,0,0.1586,0.1565,0.1516,0.1533,0.1531,0.1531,0.1595,0.1613,0.1704,0.1749,0.1827,0.1892,0.1985,0.2003,0.2162,0.2129,0.2202,0.2266,0.2272,0.2266,0.2284,0.2305,0.2332,0.218,0.234,0.2339,0.2338,0,0.1523,0.1492,0.1459,0.146,0.1482,0.1495,0.1522,0.1601,0.1634,0.1731,0.1771,0.1889,0.1951,0.2067,0.2194,0.2191,0.2355,0.2371,0.2421,0.242,0.2392,0.2386,0.2287,0.2468,0.2468,0.2468,0.2468,0,0.1452,0.1423,0.1429,0.141,0.1397,0.144,0.1455,0.151,0.159,0.1641,0.1744,0.1812,0.1972,0.2084,0.2194,0.2337,0.2362,0.2422,0.2451,0.2382,0.2374,0.2266,0.2198,0.2472,0.2471,0.247,0.247,0,0.138,0.1379,0.1342,0.1355,0.136,0.1354,0.1402,0.1432,0.1512,0.1582,0.1617,0.177,0.1932,0.2075,0.2267,0.2335,0.2392,0.2511,0.2407,0.2421,0.2319,0.2254,0.2156,0.2135,0.2592,0.2592,0.2592,0,0.1332,0.1304,0.1292,0.1283,0.1286,0.1291,0.1312,0.1387,0.1433,0.1568,0.1609,0.1764,0.1885,0.2138,0.2311,0.2494,0.2391,0.2501,0.2478,0.2298,0.2248,0.2132,0.2115,0.2439,0.2438,0.2437,0.2436,0,0.1254,0.1254,0.1235,0.121,0.1214,0.122,0.1257,0.128,0.1393,0.1458,0.158,0.1677,0.1933,0.2087,0.2301,0.2425,0.2331,0.2488,0.2338,0.2144,0.1976,0.1975,0.2368,0.2428,0.2429,0.243,0.243,0.243,0.1204,0.1177,0.1159,0.1139,0.1142,0.1155,0.116,0.1227,0.1283,0.1393,0.1515,0.1637,0.1832,0.2145,0.2244,0.2295,0.2308,0.2241,0.2189,0.2096,0.202,0.2379,0.2445,0.2446,0.2447,0.2447,0.2448,0,0.1134,0.1117,0.1094,0.1072,0.1066,0.109,0.1133,0.1155,0.1213,0.1322,0.1424,0.1575,0.1716,0.1882,0.2015,0.1963,0.1953,0.1895,0.1696,0.1715,0.2069,0.2003,0.1929,0.1929,0.1929,0.193,0.193,0.193,0.1093,0.1052,0.1043,0.1004,0.1002,0.1004,0.1026,0.1068,0.1133,0.1217,0.1285,0.137,0.1465,0.1498,0.1501,0.1546,0.1416,0.1358,0.1362,0.1554,0.158,0.1605,0.1523,0.135,0.135,0.0973,0.0969,0.0966]},{"header":{"parameterUnit":"m.s-1","parameterCategory":2,"la1":30.2991,"la2":30.254,"lo1":-89.0895,"lo2":-89.0444,"dy":0.0017,"dx":0.0017,"nx":28,"ny":28,"refTime":"2023-11-05T03:00:00:Z","depth":"0","parameterNumber":3,"parameterNumberName":"V-component_of_CURRENTS"},"data":[0,0,0,0,0,0,0,0,0,0,0,0,0,0,0,0,0,0,0,0,0,0,0,0,0,0,0,0,0,0,0,0,0,0,0,0,0,0,0,0,0,0,0,0,0,0,0,0,0,0,0,0,0,0,0,0,0,0,0.0292,0.0293,0,0.0351,0.0352,0.0352,0.0361,0.036,0.0359,0.0359,0.0366,0.0367,0.0367,0,0,0,0,0,0,0,0,0,0,0,0,0,0.0231,0.0231,0.0292,0.0293,0.0293,0.0351,0.0352,0.0353,0.0361,0.036,0.0359,0.0359,0.0366,0.0367,0.0368,0,0,0,0,0,0,0,0,0,0,0,0,0,0.027,0.0232,0.0292,0.0304,0.0306,0.0351,0.0352,0.0353,0.0361,0.036,0.0359,0.0358,0.0366,0.0367,0.0368,0.0391,0,0,0.0371,0.0371,0,0,0,0,0,0,0,0,0.0268,0.0272,0.0302,0.0304,0.0306,0.0348,0.0333,0.0363,0.0361,0.034,0.0359,0.0358,0.0356,0.0358,0.0371,0.0391,0.0391,0.0371,0.0372,0.0372,0.0372,0,0,0,0,0,0,0,0.0265,0.027,0.0315,0.0303,0.0305,0.0322,0.0327,0.0339,0.0351,0.0342,0.0342,0.0349,0.0356,0.037,0.0371,0.0392,0.0371,0.0372,0.0373,0.0373,0.0419,0.042,0,0,0,0,0,0,0.0257,0.0267,0.0313,0.0317,0.0284,0.0324,0.0329,0.0335,0.0352,0.0354,0.035,0.035,0.0369,0.037,0.0371,0.0406,0.0372,0.0373,0.0374,0.0419,0.0419,0.042,0,0,0,0,0,0,0.0255,0.026,0.0311,0.0294,0.0301,0.0326,0.0333,0.0337,0.035,0.0359,0.036,0.0359,0.0368,0.037,0.0393,0.0405,0.0374,0.0375,0.0418,0.0419,0.042,0.047,0,0,0,0,0,0,0.0253,0.0259,0.0263,0.0293,0.0302,0.0345,0.0334,0.0338,0.0356,0.0356,0.0367,0.0367,0.0368,0.0391,0.0394,0.0406,0.0375,0.0417,0.0418,0.0419,0.0467,0.0472,0.0476,0,0,0,0,0,0.0251,0.0263,0.0263,0.0269,0.0306,0.0346,0.0352,0.0367,0.0357,0.0373,0.0381,0.0367,0.0399,0.0394,0.0396,0.0409,0.0417,0.0418,0.0419,0.0465,0.0471,0.0476,0,0,0,0,0,0,0.024,0.0266,0.0266,0.0286,0.0315,0.0347,0.0362,0.0369,0.039,0.0384,0.0385,0.0387,0.0408,0.0403,0.0396,0.0423,0.0401,0.0403,0.0435,0.0441,0.0445,0.0439,0.0376,0,0,0,0,0,0.0238,0.0255,0.0282,0.03,0.0311,0.0335,0.0351,0.0363,0.0384,0.0392,0.0402,0.0406,0.0417,0.0424,0.0433,0.0456,0.0438,0.0461,0.0466,0.047,0.0466,0.045,0.0453,0.0424,0.0424,0.0424,0,0,0.024,0.0257,0.0266,0.03,0.0318,0.035,0.0343,0.0372,0.0397,0.0389,0.0422,0.0425,0.0427,0.0453,0.046,0.045,0.0472,0.0472,0.0475,0.0469,0.0452,0.0455,0.0457,0.0425,0.0425,0.0425,0,0,0.0258,0.0264,0.0285,0.031,0.0342,0.0362,0.037,0.0404,0.0413,0.0449,0.0444,0.0458,0.048,0.0487,0.0491,0.0525,0.0496,0.0521,0.0542,0.0528,0.053,0.0532,0.0527,0.0528,0.0524,0.0524,0.0524,0,0.0258,0.0289,0.0299,0.0329,0.0353,0.0367,0.0401,0.0419,0.0459,0.0468,0.0462,0.0494,0.0496,0.0522,0.0533,0.0535,0.0521,0.0525,0.0534,0.0535,0.0536,0.053,0.053,0.0526,0.0526,0.0526,0.0526,0,0.0294,0.0321,0.0337,0.0378,0.0405,0.0438,0.0463,0.0485,0.0495,0.0511,0.0536,0.0544,0.056,0.0563,0.056,0.0571,0.0558,0.0542,0.0521,0.0542,0.0535,0.0534,0.053,0.0529,0.0528,0.0528,0,0,0.0293,0.0351,0.0357,0.0387,0.0433,0.0463,0.0496,0.0535,0.0557,0.0576,0.06,0.0617,0.0611,0.0614,0.061,0.0598,0.06,0.0573,0.0571,0.0569,0.0571,0.0561,0.0559,0.0581,0.0581,0.0581,0.057,0,0.0321,0.0384,0.0405,0.047,0.0506,0.0526,0.056,0.0591,0.061,0.0637,0.0629,0.0653,0.0633,0.0643,0.0629,0.0611,0.0597,0.0605,0.055,0.0548,0.0537,0.0557,0.0614,0.0608,0.0569,0.0569,0.0569,0,0.0354,0.0393,0.0456,0.0521,0.0536,0.0572,0.0624,0.0658,0.0684,0.0693,0.0703,0.0699,0.0702,0.0671,0.0642,0.0646,0.0609,0.0585,0.0583,0.0552,0.0536,0.0577,0.0608,0.0574,0.0567,0.0567,0.0567,0,0.036,0.0433,0.0485,0.0508,0.0577,0.06,0.0634,0.0673,0.0701,0.0727,0.0748,0.0742,0.0746,0.0699,0.0662,0.0646,0.0619,0.0593,0.0547,0.0547,0.0573,0.0574,0.0563,0.0553,0.0553,0.0553,0.0553,0,0.0391,0.0437,0.0491,0.052,0.0576,0.0616,0.0666,0.0697,0.0737,0.0773,0.0775,0.0801,0.0749,0.0733,0.0678,0.0624,0.0634,0.0553,0.0541,0.0593,0.0597,0.0549,0.0511,0.0553,0.0553,0.0553,0.0553,0,0.0405,0.0441,0.0501,0.0562,0.0582,0.0621,0.0683,0.072,0.0759,0.0806,0.0815,0.0843,0.0832,0.0785,0.0721,0.0654,0.0589,0.057,0.0641,0.0637,0.0542,0.0505,0.0484,0.048,0.051,0.0509,0.0509,0,0.0426,0.0457,0.0515,0.0545,0.0575,0.0629,0.0667,0.072,0.0759,0.0835,0.0859,0.0877,0.0903,0.083,0.0737,0.0652,0.0601,0.0606,0.0575,0.0546,0.0497,0.0498,0.0496,0.064,0.0641,0.0641,0.0642,0,0.0462,0.0473,0.0511,0.0556,0.0599,0.0654,0.071,0.0744,0.0809,0.0859,0.0933,0.0968,0.0934,0.0899,0.0784,0.0714,0.0608,0.0613,0.0571,0.0584,0.0598,0.0587,0.0639,0.0648,0.0647,0.0647,0.0646,0.0646,0.0479,0.0501,0.0533,0.058,0.0626,0.0683,0.0726,0.0785,0.0855,0.0954,0.0986,0.1062,0.1027,0.0901,0.08,0.0656,0.0634,0.0602,0.0558,0.056,0.0561,0.0622,0.0618,0.0617,0.0617,0.0616,0.0616,0,0.0495,0.052,0.0561,0.0613,0.0657,0.0681,0.0762,0.0809,0.0887,0.0988,0.1069,0.1134,0.1062,0.0948,0.0764,0.0636,0.0617,0.0569,0.0596,0.0592,0.0646,0.0656,0.0676,0.0676,0.0676,0.0676,0.0676,0.0676,0.0507,0.0535,0.0553,0.0627,0.0667,0.0728,0.0774,0.0847,0.0925,0.1062,0.1146,0.1226,0.1181,0.0856,0.0646,0.0597,0.0535,0.0533,0.0466,0.0508,0.0509,0.0509,0.0511,0.05,0.05,0.0486,0.0485,0.0485]}],[{"header":{"parameterUnit":"m.s-1","parameterCategory":2,"la1":30.2991,"la2":30.254,"lo1":-89.0895,"lo2":-89.0444,"dy":0.0017,"dx":0.0017,"nx":28,"ny":28,"refTime":"2023-11-05T03:00:00:Z","depth":"2","parameterNumber":2,"parameterNumberName":"U-component_of_CURRENTS"},"data":[0,0,0,0,0,0,0,0,0,0,0,0,0,0,0,0,0,0,0,0,0,0,0,0,0,0,0,0,0,0,0,0,0,0,0,0,0,0,0,0,0,0,0,0,0,0,0,0,0,0,0,0,0,0,0,0,0,0,0.0911,0.0911,0,0.0912,0.0912,0.0912,0.0939,0.0939,0.094,0.094,0.1,0.1001,0.1002,0,0,0,0,0,0,0,0,0,0,0,0,0,0.0966,0.0965,0.0911,0.0911,0.0911,0.0911,0.0912,0.0912,0.0938,0.0939,0.094,0.0941,0.1,0.1001,0.1002,0,0,0,0,0,0,0,0,0,0,0,0,0,0.0953,0.0964,0.0911,0.0924,0.0925,0.0911,0.0912,0.0912,0.0938,0.0939,0.094,0.0941,0.0999,0.1001,0.1002,0.0993,0,0,0.1007,0.1007,0,0,0,0,0,0,0,0,0.0953,0.0951,0.0922,0.0923,0.0924,0.0925,0.0953,0.0941,0.0938,0.0934,0.094,0.0941,0.0979,0.0982,0.0981,0.0996,0.0998,0.1007,0.1008,0.1009,0.1009,0,0,0,0,0,0,0,0.0954,0.0951,0.0912,0.0922,0.0923,0.094,0.0939,0.0951,0.0953,0.0935,0.0936,0.0935,0.098,0.0979,0.0983,0.0999,0.1007,0.1008,0.1009,0.101,0.1093,0.1094,0,0,0,0,0,0,0.0949,0.0951,0.0912,0.0912,0.094,0.0938,0.0937,0.0925,0.0952,0.0956,0.0934,0.0936,0.0976,0.0981,0.0985,0.1049,0.1009,0.101,0.1011,0.1091,0.1093,0.1094,0,0,0,0,0,0,0.095,0.0945,0.0912,0.0932,0.0929,0.0936,0.0922,0.0924,0.0939,0.095,0.0956,0.0949,0.0977,0.0983,0.1022,0.1049,0.1011,0.1012,0.109,0.1092,0.1094,0.1131,0,0,0,0,0,0,0.0952,0.0945,0.0944,0.0931,0.0928,0.0916,0.0921,0.0923,0.0935,0.0939,0.0965,0.097,0.0978,0.102,0.1024,0.105,0.1013,0.1088,0.1091,0.1093,0.1128,0.1133,0.1138,0,0,0,0,0,0.0953,0.0945,0.0944,0.094,0.0922,0.0916,0.0917,0.0926,0.0935,0.0943,0.0972,0.097,0.1038,0.1022,0.1026,0.1054,0.1087,0.109,0.1093,0.1125,0.1132,0.1138,0,0,0,0,0,0,0.0973,0.0946,0.0945,0.0931,0.093,0.0921,0.0926,0.0933,0.0958,0.0967,0.0984,0.0992,0.1036,0.1039,0.1021,0.1086,0.1063,0.1067,0.1086,0.1093,0.1098,0.1098,0.1014,0,0,0,0,0,0.0973,0.0957,0.0944,0.0935,0.0933,0.0933,0.0935,0.094,0.0953,0.0965,0.0985,0.1013,0.1046,0.1066,0.1086,0.1118,0.1133,0.114,0.1146,0.115,0.1154,0.121,0.1221,0.1104,0.1104,0.1104,0,0,0.0978,0.0962,0.0954,0.0938,0.0936,0.0936,0.0937,0.094,0.0956,0.0968,0.1005,0.103,0.1059,0.1101,0.1121,0.111,0.1191,0.1154,0.1158,0.1159,0.1214,0.1226,0.1236,0.1106,0.1106,0.1105,0,0,0.0971,0.0965,0.0948,0.0948,0.0943,0.0946,0.0951,0.0952,0.0972,0.1003,0.1026,0.1072,0.1106,0.1141,0.1162,0.1209,0.1216,0.1215,0.1246,0.13,0.1311,0.132,0.1349,0.136,0.1221,0.1221,0.1221,0,0.0982,0.0955,0.0948,0.0937,0.0942,0.0953,0.0952,0.0971,0.0992,0.1021,0.1022,0.1107,0.1128,0.1199,0.1218,0.1222,0.1245,0.1218,0.1308,0.1317,0.1326,0.1354,0.1366,0.1223,0.1223,0.1222,0.1222,0,0.0959,0.0949,0.0943,0.0933,0.0942,0.0943,0.0964,0.0993,0.1021,0.1045,0.1118,0.1155,0.1211,0.1227,0.1238,0.1316,0.1309,0.1306,0.129,0.134,0.1366,0.1378,0.1226,0.1225,0.1224,0.1224,0,0,0.0956,0.0929,0.0931,0.0927,0.0941,0.0944,0.0986,0.1027,0.1068,0.111,0.1169,0.1236,0.1266,0.1292,0.132,0.1367,0.1445,0.1365,0.1367,0.1391,0.1556,0.1414,0.1414,0.1463,0.1465,0.1467,0.1548,0,0.0945,0.0915,0.0916,0.092,0.0912,0.095,0.099,0.1038,0.109,0.1152,0.1218,0.1278,0.129,0.1324,0.138,0.1431,0.1479,0.1422,0.1507,0.1509,0.1375,0.1424,0.1224,0.1267,0.156,0.1562,0.1563,0,0.0927,0.0908,0.0893,0.0911,0.0916,0.0933,0.1007,0.1042,0.1139,0.1182,0.1264,0.1315,0.1409,0.1398,0.1525,0.1491,0.1529,0.1559,0.1563,0.1425,0.1389,0.1266,0.1278,0.1583,0.1581,0.158,0.1578,0,0.0918,0.0904,0.089,0.0893,0.0913,0.0939,0.0969,0.1055,0.11,0.1204,0.1252,0.1366,0.1423,0.1505,0.1577,0.1564,0.1695,0.1683,0.1591,0.1582,0.1422,0.1393,0.1768,0.1768,0.1767,0.1767,0.1767,0,0.0905,0.09,0.0882,0.0876,0.0891,0.092,0.0968,0.1021,0.1108,0.1169,0.1264,0.1335,0.1454,0.1545,0.1601,0.1628,0.1722,0.1601,0.1597,0.1426,0.1397,0.1677,0.1665,0.177,0.1769,0.1769,0.1768,0,0.09,0.0883,0.0867,0.0873,0.0879,0.0892,0.0944,0.0991,0.107,0.1153,0.1189,0.1329,0.1443,0.1544,0.167,0.1634,0.1687,0.1672,0.1444,0.1409,0.1531,0.1521,0.1576,0.1572,0.1568,0.1565,0.1563,0,0.0892,0.0876,0.0855,0.0849,0.0849,0.0868,0.0896,0.0964,0.1013,0.1149,0.1192,0.1324,0.1403,0.1511,0.1453,0.1487,0.1647,0.134,0.1261,0.1523,0.1515,0.151,0.1505,0.108,0.1073,0.1068,0.1064,0,0.0882,0.0871,0.0855,0.0829,0.0836,0.0846,0.0884,0.091,0.1005,0.1074,0.118,0.1249,0.1281,0.1206,0.1201,0.1202,0.1309,0.1229,0.1604,0.1132,0.1054,0.1046,0.1058,0.1019,0.1023,0.1026,0.1029,0.1031,0.088,0.0863,0.0834,0.0815,0.0815,0.0822,0.083,0.0873,0.0925,0.0981,0.108,0.1085,0.0983,0.0843,0.0861,0.0878,0.0955,0.0941,0.0959,0.0982,0.0883,0.0799,0.0698,0.07,0.0703,0.0705,0.0706,0,0.0871,0.0848,0.0826,0.0795,0.0784,0.0796,0.0824,0.0818,0.0847,0.0843,0.0881,0.0665,0.057,0.0612,0.0493,0.0449,0.0469,0.052,0.0547,0.0586,0.0623,0.051,0.0226,0.0226,0.0226,0.0226,0,0,0.0864,0.083,0.0808,0.0767,0.0754,0.0745,0.0752,0.0732,0.0706,0.0625,0.0554,0.0443,0.045,0.0254,0.0228,0.0262,0.0445,0.0249,0.0606,0.0669,0.0707,0.0803,0.0664,0,0,0,0,0]},{"header":{"parameterUnit":"m.s-1","parameterCategory":2,"la1":30.2991,"la2":30.254,"lo1":-89.0895,"lo2":-89.0444,"dy":0.0017,"dx":0.0017,"nx":28,"ny":28,"refTime":"2023-11-05T03:00:00:Z","depth":"2","parameterNumber":3,"parameterNumberName":"V-component_of_CURRENTS"},"data":[0,0,0,0,0,0,0,0,0,0,0,0,0,0,0,0,0,0,0,0,0,0,0,0,0,0,0,0,0,0,0,0,0,0,0,0,0,0,0,0,0,0,0,0,0,0,0,0,0,0,0,0,0,0,0,0,0,0,-0.0014,-0.0015,0,-0.004,-0.004,-0.004,-0.0094,-0.0095,-0.0096,-0.0097,-0.0215,-0.0217,-0.0219,0,0,0,0,0,0,0,0,0,0,0,0,0,0.0007,0.0007,-0.0014,-0.0015,-0.0015,-0.004,-0.004,-0.004,-0.0093,-0.0095,-0.0096,-0.0097,-0.0214,-0.0217,-0.0219,0,0,0,0,0,0,0,0,0,0,0,0,0,-0.0009,0.0007,-0.0014,-0.0044,-0.0047,-0.004,-0.004,-0.0041,-0.0093,-0.0095,-0.0096,-0.0098,-0.0213,-0.0217,-0.022,-0.0209,0,0,-0.023,-0.0231,0,0,0,0,0,0,0,0,-0.0008,-0.001,-0.0039,-0.0042,-0.0045,-0.0065,-0.0076,-0.0101,-0.0093,-0.0076,-0.0097,-0.0098,-0.0172,-0.0179,-0.0179,-0.0215,-0.022,-0.023,-0.0232,-0.0234,-0.0234,0,0,0,0,0,0,0,-0.0007,-0.0009,-0.0025,-0.0039,-0.0043,-0.005,-0.0054,-0.0081,-0.0117,-0.0078,-0.0081,-0.0083,-0.0175,-0.0176,-0.0183,-0.0221,-0.023,-0.0233,-0.0235,-0.0236,-0.0299,-0.0298,0,0,0,0,0,0,-0.0002,-0.0008,-0.0024,-0.0025,-0.003,-0.0049,-0.0054,-0.0057,-0.0115,-0.0124,-0.0082,-0.0085,-0.0169,-0.0179,-0.0187,-0.0203,-0.0234,-0.0237,-0.0238,-0.0299,-0.0299,-0.0298,0,0,0,0,0,0,-0.0002,-0.0003,-0.0023,-0.0017,-0.002,-0.0048,-0.0051,-0.0057,-0.0076,-0.0117,-0.0129,-0.0097,-0.0171,-0.0183,-0.0212,-0.0208,-0.0238,-0.0241,-0.0299,-0.0299,-0.0299,-0.022,0,0,0,0,0,0,-0.0001,-0.0003,-0.0011,-0.0017,-0.002,-0.0019,-0.005,-0.0056,-0.0073,-0.0079,-0.0133,-0.0145,-0.0173,-0.0207,-0.0216,-0.0213,-0.0244,-0.03,-0.0299,-0.0299,-0.0223,-0.0217,-0.0212,0,0,0,0,0,-0.0,-0.0001,-0.0011,-0.0013,-0.0028,-0.0019,-0.0021,-0.0046,-0.0072,-0.0071,-0.0108,-0.0144,-0.021,-0.0209,-0.0219,-0.0217,-0.03,-0.0299,-0.0299,-0.0226,-0.0218,-0.0212,0,0,0,0,0,0,-0.0,-0.0007,-0.0018,-0.0023,-0.0022,-0.0028,-0.0035,-0.0049,-0.0075,-0.0092,-0.0135,-0.0148,-0.0172,-0.0205,-0.0203,-0.0235,-0.0263,-0.0264,-0.0204,-0.0198,-0.0192,-0.0178,-0.0246,0,0,0,0,0,-0.0,-0.0004,-0.0006,-0.0011,-0.0011,-0.0025,-0.0029,-0.0042,-0.0061,-0.0075,-0.0108,-0.0148,-0.0172,-0.0194,-0.0221,-0.0237,-0.0258,-0.0245,-0.0239,-0.0234,-0.023,-0.0252,-0.0247,-0.0296,-0.0296,-0.0296,0,0,-0.0002,-0.0007,-0.001,-0.0011,-0.0018,-0.0007,-0.0032,-0.0037,-0.0032,-0.0084,-0.0099,-0.0129,-0.0171,-0.0184,-0.0199,-0.0216,-0.0229,-0.0233,-0.0228,-0.0227,-0.0251,-0.0246,-0.0242,-0.0296,-0.0296,-0.0296,0,0,0.0003,-0.001,-0.0009,-0.0002,-0.0007,-0.0006,-0.0007,-0.0014,-0.0026,-0.0031,-0.0069,-0.009,-0.0132,-0.0152,-0.017,-0.0151,-0.0195,-0.0171,-0.0135,-0.0155,-0.0151,-0.0148,-0.0152,-0.015,-0.0172,-0.0171,-0.0171,0,-0.0002,0.0002,-0.0005,0.0004,0.0011,-0.0004,0.001,0.0007,-0.0008,-0.0011,-0.0032,-0.0075,-0.0112,-0.0122,-0.0115,-0.0137,-0.0155,-0.0153,-0.0146,-0.0144,-0.0142,-0.0148,-0.0146,-0.0168,-0.0168,-0.0168,-0.0169,0,0.0012,0.0014,0.0017,0.0026,0.0037,0.0044,0.005,0.005,0.0035,0.0033,0.002,-0.0015,-0.0042,-0.0055,-0.008,-0.0084,-0.0101,-0.0131,-0.0158,-0.0132,-0.014,-0.014,-0.0162,-0.0163,-0.0165,-0.0166,0,0,-0.0002,0.0022,0.002,0.0032,0.0048,0.0059,0.0075,0.0089,0.0096,0.0081,0.0091,0.0058,0.0037,0.0015,-0.0019,-0.0036,-0.0029,-0.0075,-0.0078,-0.007,-0.0065,-0.0049,-0.0047,-0.0061,-0.0061,-0.0061,-0.007,0,0.0006,0.0029,0.0043,0.0071,0.0085,0.0095,0.0116,0.0127,0.0129,0.0137,0.011,0.0101,0.0064,0.005,0.0032,-0.0013,-0.0029,-0.0024,-0.0101,-0.0103,-0.0084,-0.0047,-0.005,-0.0056,-0.007,-0.007,-0.007,0,0.001,0.0027,0.0051,0.0095,0.0102,0.0119,0.015,0.0169,0.0184,0.0185,0.0179,0.0159,0.0144,0.0101,0.0049,0.0053,-0.0,-0.0036,-0.0038,-0.0052,-0.0087,-0.009,-0.0056,-0.007,-0.007,-0.007,-0.007,0,-0.0005,0.0033,0.0051,0.0064,0.011,0.0122,0.0146,0.0172,0.0195,0.021,0.0228,0.0206,0.0195,0.0136,0.0073,0.0054,0.0018,-0.0022,-0.0054,-0.0053,-0.0085,-0.0087,-0.0067,-0.0067,-0.0067,-0.0067,-0.0067,0,-0.0005,0.0011,0.0042,0.0051,0.0081,0.0116,0.0149,0.0172,0.021,0.0249,0.0243,0.027,0.02,0.0175,0.0102,0.0044,0.0038,-0.0033,-0.0052,-0.0056,-0.0055,-0.0101,-0.0104,-0.0067,-0.0067,-0.0067,-0.0067,0,-0.0026,-0.0007,0.0016,0.0057,0.007,0.0087,0.0149,0.0182,0.0219,0.027,0.0279,0.0312,0.0293,0.0229,0.0147,0.0087,0.0021,-0.0009,0.0006,-0.001,-0.0045,-0.0045,-0.0039,-0.0038,-0.0038,-0.0038,-0.0037,0,-0.0034,-0.0027,0.0006,0.0023,0.0038,0.0074,0.0109,0.0165,0.0212,0.0302,0.0333,0.0347,0.0374,0.0292,0.0191,0.009,0.0045,0.0007,-0.0033,-0.0021,-0.0041,-0.0041,-0.0042,-0.0043,-0.0043,-0.0042,-0.0042,0,-0.0041,-0.004,-0.0018,0.0009,0.0038,0.0091,0.0147,0.0188,0.0272,0.0335,0.0432,0.0466,0.0415,0.0328,0.0198,0.0131,0.0028,0.0009,0.0011,-0.0043,-0.0024,-0.0043,-0.0044,-0.004,-0.004,-0.0041,-0.0041,-0.0041,-0.0051,-0.0042,-0.0018,0.0009,0.0048,0.0117,0.0162,0.0248,0.034,0.0447,0.0485,0.0503,0.0375,0.0206,0.014,0.0071,0.0062,-0.0016,-0.0017,-0.0019,-0.0011,0.0008,-0.0,-0.0,0.0,0.0,0.0,0,-0.0051,-0.0035,-0.0007,0.0036,0.008,0.0101,0.0201,0.027,0.0386,0.0441,0.0525,0.0381,0.0295,0.0173,0.0075,0.0016,0.0015,-0.0011,-0.003,-0.0031,-0.0032,-0.0026,-0.0019,-0.0019,-0.0019,-0.0019,0,0,-0.0045,-0.0022,-0.0005,0.006,0.0088,0.0155,0.0211,0.033,0.0384,0.0455,0.0422,0.0385,0.0229,0.0109,0.0049,0.002,0.0016,0.0026,0.0046,0.0032,0.0032,-0.0031,-0.0022,0,0,0,0,0]}],[{"header":{"parameterUnit":"m.s-1","parameterCategory":2,"la1":30.2991,"la2":30.254,"lo1":-89.0895,"lo2":-89.0444,"dy":0.0017,"dx":0.0017,"nx":28,"ny":28,"refTime":"2023-11-05T03:00:00:Z","depth":"4","parameterNumber":2,"parameterNumberName":"U-component_of_CURRENTS"},"data":[0,0,0,0,0,0,0,0,0,0,0,0,0,0,0,0,0,0,0,0,0,0,0,0,0,0,0,0,0,0,0,0,0,0,0,0,0,0,0,0,0,0,0,0,0,0,0,0,0,0,0,0,0,0,0,0,0,0,-0.0396,-0.0395,0,-0.0398,-0.0399,-0.0399,-0.0351,-0.0349,-0.0347,-0.0346,-0.0372,-0.0374,-0.0376,0,0,0,0,0,0,0,0,0,0,0,0,0,-0.0376,-0.0377,-0.0396,-0.0395,-0.0395,-0.0398,-0.0399,-0.0399,-0.0351,-0.0349,-0.0347,-0.0345,-0.0371,-0.0373,-0.0376,0,0,0,0,0,0,0,0,0,0,0,0,0,-0.0386,-0.0377,-0.0396,-0.0368,-0.0366,-0.0398,-0.0399,-0.0399,-0.0352,-0.0349,-0.0346,-0.0344,-0.037,-0.0373,-0.0377,-0.0448,0,0,-0.0387,-0.0388,0,0,0,0,0,0,0,0,-0.0386,-0.0388,-0.0373,-0.037,-0.0367,-0.0368,-0.0401,-0.0415,-0.0352,-0.0361,-0.0346,-0.0343,-0.0372,-0.0375,-0.0387,-0.0449,-0.0451,-0.0387,-0.0389,-0.0391,-0.0392,0,0,0,0,0,0,0,-0.0385,-0.0387,-0.0401,-0.0372,-0.0369,-0.0365,-0.0364,-0.0404,-0.0384,-0.036,-0.0356,-0.035,-0.037,-0.0383,-0.0387,-0.0451,-0.0387,-0.039,-0.0392,-0.0394,-0.0508,-0.0509,0,0,0,0,0,0,-0.0378,-0.0387,-0.0401,-0.0401,-0.0366,-0.0367,-0.0366,-0.0374,-0.0383,-0.0381,-0.0352,-0.0348,-0.0379,-0.0383,-0.0387,-0.0384,-0.0391,-0.0394,-0.0396,-0.0507,-0.0508,-0.0509,0,0,0,0,0,0,-0.0378,-0.038,-0.0401,-0.0389,-0.0391,-0.0369,-0.0379,-0.0375,-0.0335,-0.0376,-0.0374,-0.0309,-0.0377,-0.0383,-0.0399,-0.0388,-0.0395,-0.0398,-0.0506,-0.0507,-0.0509,-0.0434,0,0,0,0,0,0,-0.0378,-0.038,-0.0379,-0.039,-0.0391,-0.0399,-0.0381,-0.0377,-0.0337,-0.0329,-0.034,-0.0343,-0.0375,-0.0393,-0.0402,-0.0392,-0.0401,-0.0505,-0.0507,-0.0508,-0.0435,-0.0433,-0.0431,0,0,0,0,0,-0.0377,-0.0379,-0.0379,-0.038,-0.0392,-0.0399,-0.04,-0.0378,-0.0336,-0.033,-0.0335,-0.034,-0.0411,-0.0397,-0.0407,-0.0398,-0.0504,-0.0506,-0.0508,-0.0436,-0.0433,-0.0431,0,0,0,0,0,0,-0.0367,-0.0375,-0.0375,-0.0378,-0.038,-0.0388,-0.0367,-0.0352,-0.035,-0.0316,-0.0353,-0.0358,-0.037,-0.0404,-0.0387,-0.0442,-0.0459,-0.0463,-0.0401,-0.0399,-0.0397,-0.039,-0.0404,0,0,0,0,0,-0.0369,-0.037,-0.0379,-0.038,-0.0367,-0.0358,-0.035,-0.0329,-0.033,-0.0321,-0.0327,-0.035,-0.0401,-0.0408,-0.045,-0.0478,-0.0518,-0.0482,-0.048,-0.0477,-0.0482,-0.0561,-0.0565,-0.0517,-0.0517,-0.0517,0,0,-0.037,-0.0368,-0.0372,-0.0378,-0.0364,-0.0361,-0.0345,-0.0306,-0.0314,-0.0329,-0.0317,-0.0335,-0.0408,-0.0439,-0.0448,-0.0454,-0.0507,-0.048,-0.0477,-0.0484,-0.0564,-0.0568,-0.0572,-0.0518,-0.0518,-0.0518,0,0,-0.0352,-0.0358,-0.0341,-0.034,-0.0307,-0.0322,-0.0298,-0.0274,-0.0268,-0.0268,-0.0294,-0.0315,-0.0348,-0.0422,-0.0465,-0.0484,-0.0493,-0.0467,-0.0445,-0.052,-0.0524,-0.0529,-0.055,-0.0557,-0.0464,-0.0464,-0.0464,0,-0.0341,-0.0333,-0.0339,-0.0313,-0.0309,-0.0297,-0.0277,-0.0297,-0.0283,-0.0302,-0.0247,-0.0332,-0.0363,-0.0473,-0.0453,-0.048,-0.0487,-0.0441,-0.0515,-0.052,-0.0526,-0.0548,-0.0556,-0.0461,-0.0461,-0.0461,-0.0462,0,-0.0317,-0.0299,-0.0278,-0.0266,-0.0275,-0.0244,-0.0272,-0.0271,-0.0241,-0.0265,-0.0305,-0.0346,-0.039,-0.0408,-0.0419,-0.0485,-0.0463,-0.0499,-0.0512,-0.0526,-0.0548,-0.0558,-0.0456,-0.0457,-0.0458,-0.0459,0,0,-0.0302,-0.0268,-0.0253,-0.0241,-0.0234,-0.024,-0.0271,-0.0318,-0.0345,-0.0325,-0.0369,-0.0422,-0.039,-0.0438,-0.0461,-0.0515,-0.0529,-0.0481,-0.0487,-0.0484,-0.0628,-0.053,-0.0532,-0.0548,-0.055,-0.0552,-0.0613,0,-0.0265,-0.0211,-0.0221,-0.0202,-0.0181,-0.0213,-0.0263,-0.0309,-0.0337,-0.0382,-0.0438,-0.0459,-0.0426,-0.0397,-0.0451,-0.0524,-0.0556,-0.0505,-0.0633,-0.0636,-0.0534,-0.0543,-0.056,-0.0621,-0.0623,-0.0625,-0.0626,0,-0.0228,-0.0199,-0.0147,-0.0173,-0.0168,-0.0162,-0.0238,-0.0274,-0.0379,-0.0387,-0.0421,-0.0445,-0.0505,-0.046,-0.058,-0.0525,-0.0543,-0.0602,-0.0608,-0.0554,-0.0559,-0.0619,-0.0646,-0.0644,-0.0643,-0.0641,-0.064,0,-0.0201,-0.0163,-0.0118,-0.0113,-0.0136,-0.0128,-0.0147,-0.0242,-0.0299,-0.0349,-0.0379,-0.0457,-0.0469,-0.0534,-0.0589,-0.0557,-0.0737,-0.0734,-0.0685,-0.0677,-0.0779,-0.0775,-0.0822,-0.0822,-0.0822,-0.0821,-0.0821,0,-0.0168,-0.014,-0.0077,-0.0049,-0.0033,-0.0057,-0.0077,-0.0122,-0.0207,-0.0304,-0.0324,-0.0413,-0.0475,-0.0584,-0.0618,-0.0671,-0.0754,-0.0676,-0.0695,-0.0741,-0.0732,-0.0784,-0.0778,-0.0824,-0.0823,-0.0823,-0.0822,0,-0.0146,-0.01,-0.0051,-0.0016,-0.0001,0.0029,-0.0003,-0.0061,-0.0106,-0.0231,-0.0227,-0.0369,-0.0451,-0.0553,-0.0687,-0.0696,-0.078,-0.0783,-0.0801,-0.0821,-0.065,-0.0641,-0.0705,-0.0702,-0.07,-0.0698,-0.0696,0,-0.0131,-0.0085,-0.0002,0.0032,0.0076,0.0109,0.0086,0.003,-0.0063,-0.024,-0.033,-0.0406,-0.0491,-0.0605,-0.069,-0.0742,-0.0743,-0.0767,-0.0704,-0.0631,-0.0643,-0.0638,-0.0632,-0.0692,-0.0692,-0.0691,-0.069,0,-0.0117,-0.0057,-0.002,0.0066,0.0105,0.0084,0.0055,-0.0002,-0.0137,-0.02,-0.0359,-0.0406,-0.0515,-0.0571,-0.0596,-0.0661,-0.0743,-0.0742,-0.0746,-0.0687,-0.0617,-0.063,-0.0627,-0.0682,-0.0683,-0.0684,-0.0685,0,-0.0099,-0.007,0.0002,0.0065,0.0099,0.0057,0.0042,-0.0058,-0.0131,-0.0318,-0.0379,-0.0472,-0.0536,-0.0537,-0.0612,-0.0599,-0.0569,-0.056,-0.0573,-0.0583,-0.0514,-0.0404,-0.042,0,0,0,0,0,-0.0086,-0.0075,-0.0029,0.0023,0.0051,0.0055,-0.0021,-0.007,-0.02,-0.0281,-0.0314,-0.0398,-0.0435,-0.0496,-0.045,-0.0562,-0.0584,-0.0512,-0.0583,-0.0637,-0.0647,-0.0575,0,0,0,0,0,0,-0.0093,-0.005,-0.0044,-0.0025,-0.0004,-0.0022,-0.0062,-0.015,-0.0202,-0.0299,-0.0306,-0.0354,-0.0383,-0.0426,-0.0433,-0.0445,-0.0478,-0.0546,-0.0545,-0.0632,-0.0641,-0.0648,-0.0578,0,0,0,0,0]},{"header":{"parameterUnit":"m.s-1","parameterCategory":2,"la1":30.2991,"la2":30.254,"lo1":-89.0895,"lo2":-89.0444,"dy":0.0017,"dx":0.0017,"nx":28,"ny":28,"refTime":"2023-11-05T03:00:00:Z","depth":"4","parameterNumber":3,"parameterNumberName":"V-component_of_CURRENTS"},"data":[0,0,0,0,0,0,0,0,0,0,0,0,0,0,0,0,0,0,0,0,0,0,0,0,0,0,0,0,0,0,0,0,0,0,0,0,0,0,0,0,0,0,0,0,0,0,0,0,0,0,0,0,0,0,0,0,0,0,0.04,0.0399,0,0.0406,0.0406,0.0406,0.0477,0.0478,0.048,0.0481,0.0476,0.0474,0.0473,0,0,0,0,0,0,0,0,0,0,0,0,0,0.0364,0.0365,0.04,0.0399,0.0399,0.0406,0.0406,0.0407,0.0477,0.0478,0.048,0.0482,0.0476,0.0475,0.0473,0,0,0,0,0,0,0,0,0,0,0,0,0,0.038,0.0366,0.04,0.0432,0.0434,0.0405,0.0406,0.0407,0.0476,0.0478,0.048,0.0482,0.0477,0.0475,0.0473,0.0418,0,0,0.0466,0.0465,0,0,0,0,0,0,0,0,0.0379,0.0382,0.0427,0.0429,0.0432,0.0439,0.0391,0.0408,0.0476,0.0465,0.0481,0.0483,0.0458,0.0457,0.046,0.0418,0.0418,0.0466,0.0465,0.0464,0.0463,0,0,0,0,0,0,0,0.0378,0.0381,0.0406,0.0427,0.0429,0.0416,0.0422,0.0395,0.0453,0.0466,0.047,0.0463,0.046,0.0462,0.0461,0.0418,0.0466,0.0464,0.0463,0.0462,0.0349,0.0348,0,0,0,0,0,0,0.0371,0.0381,0.0406,0.0406,0.0405,0.0415,0.0422,0.0438,0.0454,0.0457,0.0461,0.0466,0.0465,0.0463,0.0461,0.0404,0.0464,0.0462,0.046,0.0351,0.0349,0.0347,0,0,0,0,0,0,0.0371,0.0374,0.0406,0.0389,0.0391,0.0414,0.0431,0.0437,0.0466,0.0449,0.0454,0.0487,0.0467,0.0464,0.044,0.0404,0.0461,0.0459,0.0353,0.035,0.0348,0.0285,0,0,0,0,0,0,0.037,0.0375,0.0395,0.0389,0.0392,0.0404,0.0429,0.0435,0.0455,0.0463,0.0472,0.0472,0.0468,0.0443,0.0438,0.0402,0.0457,0.0355,0.0352,0.0349,0.0289,0.0281,0.0273,0,0,0,0,0,0.0369,0.0379,0.0397,0.04,0.0417,0.0404,0.0405,0.0429,0.0454,0.0465,0.0459,0.0474,0.0419,0.044,0.0434,0.0397,0.0357,0.0353,0.0349,0.0293,0.0282,0.0273,0,0,0,0,0,0,0.0366,0.0386,0.0406,0.0422,0.0422,0.0415,0.043,0.0437,0.0442,0.0452,0.045,0.0448,0.0412,0.0413,0.0436,0.0355,0.039,0.0385,0.0349,0.0339,0.0331,0.0341,0.0455,0,0,0,0,0,0.0375,0.0403,0.04,0.0418,0.0424,0.0432,0.0435,0.0439,0.0434,0.0443,0.0429,0.0414,0.0384,0.0374,0.0349,0.0305,0.033,0.0277,0.0269,0.0263,0.0266,0.0261,0.0253,0.0334,0.0334,0.0334,0,0,0.0384,0.0392,0.0413,0.0421,0.0435,0.0411,0.0443,0.0444,0.0414,0.0434,0.0398,0.0386,0.0367,0.0315,0.0298,0.0316,0.0254,0.0258,0.0252,0.0259,0.0256,0.0249,0.0242,0.0332,0.0332,0.0333,0,0,0.0382,0.0423,0.0437,0.0429,0.0429,0.0417,0.042,0.0405,0.0406,0.0359,0.0359,0.0333,0.0285,0.0261,0.0244,0.0179,0.0212,0.0165,0.013,0.0124,0.0118,0.0113,0.0148,0.0146,0.016,0.016,0.016,0,0.0389,0.04,0.0434,0.0418,0.0402,0.0418,0.0391,0.0378,0.0344,0.0328,0.0343,0.0266,0.0257,0.0193,0.0168,0.0161,0.0178,0.0168,0.0115,0.011,0.0106,0.0143,0.0142,0.0157,0.0157,0.0157,0.0158,0,0.0379,0.0383,0.0387,0.0376,0.0359,0.0344,0.0314,0.0293,0.0285,0.0261,0.0209,0.0188,0.0151,0.0129,0.0127,0.0076,0.0106,0.0107,0.0144,0.0095,0.0136,0.0137,0.0152,0.0153,0.0154,0.0155,0,0,0.0404,0.0386,0.0391,0.0368,0.0334,0.0312,0.0262,0.0219,0.019,0.0156,0.0113,0.0059,0.0067,0.005,0.0039,0.0028,0.0016,0.0051,0.0052,0.0094,0.0032,0.001,0.001,0.0005,0.0004,0.0003,0.0078,0,0.0388,0.0355,0.0341,0.0285,0.026,0.0236,0.0185,0.0142,0.0115,0.0072,0.0058,0.0019,0.003,0.0015,-0.0,0.0004,0.0011,-0.0002,0.0066,0.0069,0.0062,0.0006,0.0001,0.0079,0.0079,0.0079,0.0079,0,0.0379,0.0352,0.0313,0.0236,0.0227,0.0192,0.0127,0.008,0.0029,0.0011,-0.0022,-0.0034,-0.0064,-0.0039,-0.0035,-0.0046,-0.0007,0.001,0.0013,0.0016,0.0046,0.0134,0.008,0.008,0.008,0.008,0.008,0,0.038,0.0323,0.0296,0.0273,0.0195,0.0175,0.0139,0.008,0.004,-0.0007,-0.0039,-0.0073,-0.0081,-0.0063,-0.0017,-0.0034,0.0014,-0.0002,0.0026,0.0028,0.0059,0.0064,0.002,0.002,0.002,0.002,0.002,0,0.035,0.0326,0.0308,0.0284,0.0236,0.0188,0.0138,0.0095,0.0038,-0.0023,-0.0048,-0.0099,-0.009,-0.0069,-0.0025,0.001,0.0019,0.0015,0.003,0.0032,0.0033,0.0061,0.0064,0.0023,0.0022,0.0022,0.0021,0,0.0342,0.034,0.03,0.0251,0.024,0.0215,0.0152,0.0101,0.006,-0.0018,-0.0034,-0.0102,-0.011,-0.0065,-0.0025,0.0001,0.0044,0.0074,0.0111,0.0129,0.0065,0.0064,0.0064,0.0063,0.0063,0.0062,0.0062,0,0.0324,0.0315,0.0298,0.0285,0.0271,0.0236,0.0195,0.0134,0.0068,-0.0032,-0.0084,-0.0111,-0.0148,-0.009,-0.0048,0.0043,0.0056,0.0108,0.0031,0.0046,0.0062,0.0062,0.0062,0.0061,0.0061,0.0061,0.0061,0,0.0271,0.0306,0.0278,0.0274,0.0253,0.019,0.0132,0.0081,-0.0016,-0.0037,-0.014,-0.0152,-0.0162,-0.0136,-0.0037,0.0023,0.0069,0.0102,0.0102,0.003,0.0044,0.006,0.006,0.006,0.006,0.006,0.006,0,0.0254,0.0243,0.0248,0.0231,0.0212,0.0135,0.0101,0.0009,-0.0053,-0.0161,-0.0181,-0.0198,-0.0194,-0.0144,-0.0061,-0.0004,-0.003,-0.0009,-0.0004,-0.0002,-0.0058,-0.0053,-0.0063,0,0,0,0,0,0.022,0.021,0.0188,0.015,0.0133,0.0128,0.0037,-0.0008,-0.0082,-0.0158,-0.0177,-0.019,-0.0161,-0.0151,-0.0107,-0.0088,-0.0012,-0.0035,0.0017,0.0052,0.0053,-0.0006,0,0,0,0,0,0,0.0195,0.0193,0.0173,0.0095,0.0076,0.0021,-0.002,-0.008,-0.0134,-0.018,-0.0164,-0.0156,-0.0118,-0.0166,-0.0091,-0.008,-0.0041,-0.0012,-0.0011,0.0051,0.0052,0.0054,-0.0007,0,0,0,0,0]}]]